This demonstration page uses our WeatherBlox Daily Observations layout. Learn more.

Left ArrowRight Arrow

Hourly Observations for February 27, 2022

Temp ( °F °C ) Dew Point ( °F °C ) Humidity (%) Winds ( mph kmh ) Pressure ( in mb ) Visibility ( mi km ) Precip ( " mm )
12:56 am 00:56 Clear 26 -3.6 4 -15.6 39 39 Calm 30.39 1029 10 16 0.00 0.00
1:56 am 01:56 Clear 22 -5.4 5 -15.2 46 46 Calm 30.39 1029 10 16 0.00 0.00
2:56 am 02:56 Clear 23 -5.1 5 -15.2 45 45 WNW 3 6 30.39 1029 10 16 0.00 0.00
3:56 am 03:56 Clear 20 -6.4 6 -14.7 52 52 Calm 30.39 1029 10 16 0.00 0.00
4:56 am 04:56 Clear 20 -6.9 6 -14.4 56 56 Calm 30.39 1029 10 16 0.00 0.00
5:56 am 05:56 Clear 19 -7 6 -14.3 56 56 WNW 6 9 30.39 1029 10 16 0.00 0.00
6:56 am 06:56 Clear 19 -7.3 6 -14.4 57 57 WNW 7 11 30.39 1029 10 16 0.00 0.00
7:56 am 07:56 Sunny 23 -4.8 9 -12.9 53 53 WNW 6 9 30.39 1029 10 16 0.00 0.00
8:56 am 08:56 Sunny 28 -2.5 10 -12 48 48 W 3 6 30.40 1030 10 16 0.00 0.00
9:56 am 09:56 Sunny 36 2 11 -11.5 36 36 Calm 30.39 1029 10 16 0.00 0.00
10:56 am 10:56 Sunny 43 6.1 12 -11.1 28 28 WSW 5 7 30.37 1029 10 16 0.00 0.00
11:56 am 11:56 Sunny 48 9.1 12 -11 23 23 SW 7 11 30.35 1028 10 16 0.00 0.00
12:56 pm 12:56 Sunny 52 11.2 7 -13.7 16 16 W 9 15 30.31 1026 10 16 0.00 0.00
1:56 pm 13:56 Sunny 54 12.3 8 -13.6 15 15 SSW 12 19 30.28 1025 10 16 0.00 0.00
2:56 pm 14:56 Sunny 56 13.2 6 -14.7 13 13 WSW 10 17 30.26 1025 10 16 0.00 0.00
3:56 pm 15:56 Sunny 57 13.7 5 -15.2 12 12 WSW 13 20 30.24 1024 10 16 0.00 0.00
4:56 pm 16:56 Sunny 56 13.4 4 -15.5 12 12 WSW 9 15 30.23 1024 10 16 0.00 0.00
5:56 pm 17:56 Sunny 53 11.6 5 -15 14 14 SSW 6 9 30.21 1023 10 16 0.00 0.00
6:56 pm 18:56 undefined 46 8 6 -14.3 19 19 S 5 7 30.21 1023 10 16 0.00 0.00
7:56 pm 19:56 undefined 44 6.7 6 -14.7 20 20 SSW 8 13 30.20 1023 10 16 0.00 0.00
8:56 pm 20:56 Clear 40 4.5 5 -14.9 23 23 SE 3 6 30.19 1023 10 16 0.00 0.00
9:56 pm 21:56 undefined 36 2.2 6 -14.5 28 28 SSE 5 7 30.20 1023 10 16 0.00 0.00
10:56 pm 22:56 Clear 34 1.1 6 -14.2 31 31 Calm 30.19 1022 10 16 0.00 0.00
11:56 pm 23:56 Clear 32 -0.2 8 -13.5 36 36 Calm 30.17 1022 10 16 0.00 0.00

Powered by AerisWeather